1521856800.89,34048,9.44,71856.0,-13.53,-42.63,-42.83,0,*61
1521856802.13,34049,9.38,71854.8,-13.53,-42.75,-42.75,0,*6E
1521856803.4,34050,9.38,71852.3,-13.53,-42.75,-42.83,0,*6F
1521856804.64,34051,9.44,71856.5,-13.53,-42.89,-43.01,0,*66
1521856805.91,34052,9.38,71854.3,-13.53,-42.89,-43.09,0,*6D
1521856807.15,34053,9.44,71858.5,-13.53,-42.75,-42.89,0,*66
1521856808.39,34054,9.38,71854.8,-13.55,-42.45,-42.63,0,*60
1521856809.67,34055,9.44,71858.8,-13.53,-42.57,-42.83,0,*6A
1521856810.94,34056,9.44,71858.5,-13.53,-42.89,-43.09,0,*69
1521856812.18,34057,9.44,71858.5,-13.53,-42.89,-43.01,0,*60
1521856813.45,34058,9.44,71858.0,-13.53,-42.75,-42.83,0,*67
1521856814.71,34059,9.44,71856.8,-13.53,-42.83,-43.01,0,*64
1521856815.98,34060,9.38,71854.8,-13.53,-42.75,-42.83,0,*6C
1521856817.24,34061,9.44,71858.3,-13.53,-42.37,-42.57,0,*62
1521856818.5,34062,9.38,71852.8,-13.53,-42.75,-42.83,0,*6E
1521856819.77,34063,9.38,71856.5,-13.49,-42.57,-42.63,0,*6A
1521856821.05,34064,9.44,71858.8,-13.49,-43.01,-43.09,0,*62
1521856822.32,34065,9.38,71856.8,-13.49,-43.01,-43.09,0,*63
1521856823.59,34066,9.38,71856.8,-13.49,-42.57,-42.63,0,*6F
1521856824.85,34067,9.38,71854.5,-13.49,-42.63,-42.83,0,*67
1521856826.09,34068,9.44,71858.0,-13.47,-42.57,-42.75,0,*68
1521856827.33,34069,9.44,71852.5,-13.49,-42.75,-42.89,0,*64
1521856828.57,34070,9.38,71852.5,-13.49,-42.75,-42.89,0,*6C
1521856829.84,34071,9.38,71852.3,-13.49,-42.63,-42.83,0,*60
1521856831.11,34072,9.38,71854.0,-13.49,-43.01,-43.29,0,*67
1521856832.33,34073,9.38,71852.0,-13.47,-42.25,-42.37,0,*61
1521856833.56,34074,9.38,71854.5,-13.49,-42.37,-42.37,0,*6B
1521856834.85,34075,9.38,71854.8,-13.49,-41.81,-41.81,0,*6A
1521856836.1,34076,9.38,71854.0,-13.47,-42.51,-42.69,0,*6C
1521856837.34,34077,9.38,71852.3,-13.47,-42.95,-43.15,0,*6F
1521856838.61,34078,9.38,71854.0,-13.47,-42.57,-42.69,0,*64
1521856839.85,34079,9.38,71858.0,-13.47,-42.69,-42.75,0,*65
1521856841.07,34080,9.44,71858.5,-13.47,-42.75,-43.01,0,*6C
1521856842.32,34081,9.38,71856.0,-13.47,-42.95,-43.01,0,*63
1521856843.58,34082,9.38,71854.5,-13.47,-42.83,-42.83,0,*6C
1521856844.83,34083,9.38,71854.8,-13.47,-43.01,-43.21,0,*6F
1521856846.12,34084,9.44,71858.3,-13.49,-43.09,-43.29,0,*66
1521856847.36,34085,9.38,71854.0,-13.49,-42.63,-42.75,0,*62
1521856848.63,34086,9.38,71854.8,-13.49,-42.89,-43.09,0,*6F
1521856849.88,34087,9.44,71856.3,-13.47,-42.95,-43.15,0,*60
1521856851.15,34088,9.38,71854.8,-13.49,-43.21,-43.41,0,*6E
1521856852.44,34089,9.38,71854.5,-13.49,-43.09,-43.29,0,*6B
1521856853.72,34090,9.38,71856.8,-13.49,-43.01,-43.09,0,*69
1521856854.99,34091,9.44,71858.8,-13.49,-43.01,-43.09,0,*68
1521856856.28,34092,9.38,71856.0,-13.49,-43.21,-43.29,0,*6B
1521856857.52,34093,9.44,71860.3,-13.47,-42.75,-42.83,0,*65
1521856858.81,34094,9.38,71858.8,-13.49,-43.09,-43.09,0,*65
1521856860.08,34095,9.38,71856.5,-13.49,-43.21,-43.41,0,*62
1521856861.37,34096,9.44,71856.5,-13.49,-43.09,-43.29,0,*65
1521856862.63,34097,9.44,71856.5,-13.49,-43.01,-43.41,0,*62
1521856863.92,34098,9.38,71858.0,-13.49,-43.09,-43.21,0,*63
1521856865.16,34099,9.38,71854.0,-13.49,-43.01,-42.89,0,*69
1521856866.41,34100,9.44,71858.8,-13.47,-42.95,-43.15,0,*6E
1521856867.66,34101,9.38,71856.5,-13.49,-43.01,-43.41,0,*6C
1521856868.91,34102,9.38,71856.5,-13.49,-43.01,-43.01,0,*6B
1521856870.19,34103,9.38,71858.3,-13.53,-43.01,-43.09,0,*69
1521856871.43,34104,9.44,71856.8,-13.53,-42.75,-42.89,0,*65
1521856872.67,34105,9.44,71858.8,-13.53,-43.01,-43.01,0,*67
1521856873.94,34106,9.38,71858.5,-13.53,-42.83,-43.01,0,*6F
1521856875.18,34107,9.38,71858.3,-13.49,-42.63,-42.75,0,*69
1521856876.45,34108,9.38,71856.0,-13.49,-42.57,-42.75,0,*61
1521856877.71,34109,9.38,71856.5,-13.49,-42.83,-43.01,0,*6B
1521856878.98,34110,9.38,71854.8,-13.49,-42.83,-43.01,0,*63
1521856880.22,34111,9.38,71852.0,-13.49,-43.01,-43.01,0,*69
1521856881.49,34112,9.38,71854.5,-13.49,-43.29,-43.49,0,*6C
1521856882.76,34113,9.38,71856.3,-13.49,-43.21,-43.41,0,*6D
1521856884.05,34114,9.38,71856.8,-13.49,-43.09,-43.09,0,*6C
1521856885.3,34115,9.38,71856.0,-13.49,-42.89,-43.01,0,*6C
1521856886.53,34116,9.38,71856.8,-13.49,-42.89,-42.89,0,*6E
1521856887.81,34117,9.38,71858.8,-13.49,-43.01,-43.21,0,*6D
1521856889.08,34118,9.38,71852.5,-13.49,-43.01,-43.09,0,*68
1521856890.35,34119,9.38,71852.8,-13.49,-43.01,-43.21,0,*63
1521856891.62,34120,9.38,71856.5,-13.49,-43.01,-43.21,0,*69
1521856892.91,34121,9.38,71856.5,-13.53,-43.29,-43.29,0,*61
1521856894.16,34122,9.38,71858.8,-13.53,-43.41,-43.61,0,*60
1521856895.45,34123,9.44,71858.3,-13.53,-43.09,-43.21,0,*69
1521856896.69,34124,9.38,71856.8,-13.53,-42.89,-43.01,0,*65
1521856897.96,34125,9.38,71856.5,-13.53,-42.57,-42.63,0,*62
1521856899.25,34126,9.38,71854.8,-13.53,-43.09,-43.29,0,*64
1521856900.52,34127,9.38,71856.5,-13.49,-42.83,-42.75,0,*65
1521856901.78,34128,9.38,71856.5,-13.49,-42.37,-42.45,0,*66
1521856903.02,34129,9.44,71856.8,-13.47,-42.83,-43.01,0,*67
1521856904.28,34130,9.44,71860.8,-13.49,-42.83,-42.89,0,*60
1521856905.55,34131,9.38,71854.5,-13.49,-42.83,-43.01,0,*60
1521856906.79,34132,9.38,71854.8,-13.49,-42.89,-43.01,0,*69
1521856908.03,34133,9.38,71856.5,-13.49,-42.75,-42.89,0,*6A
1521856909.29,34134,9.38,71858.8,-13.47,-42.69,-42.83,0,*64
1521856910.56,34135,9.38,71854.5,-13.49,-42.89,-42.83,0,*65
1521856911.82,34136,9.38,71854.0,-13.49,-42.83,-43.01,0,*67
1521856913.11,34137,9.38,71856.3,-13.49,-43.21,-43.29,0,*65
1521856914.35,34138,9.38,71856.8,-13.47,-43.21,-43.49,0,*62
1521856915.63,34139,9.38,71858.8,-13.49,-42.83,-42.83,0,*63
1521856916.9,34140,9.38,71852.3,-13.49,-42.83,-42.89,0,*67
1521856918.14,34141,9.38,71856.3,-13.49,-42.75,-43.01,0,*6E
1521856919.41,34142,9.38,71856.5,-13.49,-43.21,-43.41,0,*69
1521856920.68,34143,9.38,71856.5,-13.49,-43.09,-43.41,0,*62
1521856921.95,34144,9.44,71860.5,-13.49,-43.09,-43.49,0,*6D
1521856923.22,34145,9.38,71856.8,-13.49,-42.89,-43.09,0,*61
1521856924.48,34146,9.38,71854.3,-13.49,-42.83,-42.89,0,*61
1521856925.77,34147,9.38,71854.0,-13.49,-43.09,-43.29,0,*68
1521856927.04,34148,9.38,71858.0,-13.47,-42.83,-42.95,0,*6C
1521856928.29,34149,9.38,71858.3,-13.47,-43.01,-43.21,0,*68
1521856929.56,34150,9.38,71858.3,-13.49,-43.29,-43.49,0,*6A
1521856930.78,34151,9.38,71856.0,-13.47,-43.01,-43.15,0,*66
1521856932.05,34152,9.38,71854.5,-13.47,-42.83,-43.09,0,*63
1521856933.31,34153,9.38,71856.3,-13.49,-42.83,-43.01,0,*64
1521856934.58,34154,9.38,71854.8,-13.49,-42.57,-42.63,0,*6F
1521856935.85,34155,9.38,71856.5,-13.49,-42.25,-42.57,0,*6C
1521856937.06,34156,9.44,71858.3,-13.47,-43.15,-43.35,0,*66
1521856938.33,34157,9.38,71858.5,-13.47,-42.83,-42.95,0,*62
1521856939.6,34158,9.38,71854.0,-13.49,-42.45,-42.63,0,*60
1521856940.85,34159,9.38,71854.3,-13.47,-42.57,-42.75,0,*6B
1521856942.1,34160,9.44,71858.0,-13.47,-42.13,-42.31,0,*61
1521856943.36,34161,9.38,71858.0,-13.47,-42.57,-42.69,0,*6D
1521856944.63,34162,9.38,71854.0,-13.45,-42.31,-42.51,0,*67
1521856945.9,34163,9.38,71854.8,-13.45,-42.69,-42.75,0,*6D
1521856947.18,34164,9.38,71852.0,-13.45,-42.57,-42.83,0,*6E
1521856948.43,34165,9.38,71856.5,-13.43,-42.95,-43.15,0,*69
1521856949.69,34166,9.38,71858.8,-13.45,-42.83,-43.01,0,*6E
1521856950.93,34167,9.38,71854.5,-13.45,-42.75,-43.01,0,*66
1521856952.18,34168,9.38,71852.5,-13.45,-42.75,-42.75,0,*6B
1521856953.48,34169,9.38,71854.5,-13.45,-42.95,-42.95,0,*6A
1521856954.75,34170,9.38,71856.8,-13.45,-43.01,-43.21,0,*60
1521856956.06,34171,9.38,71856.5,-13.45,-42.95,-42.95,0,*63
1521856957.36,34172,9.38,71854.5,-13.45,-42.95,-42.95,0,*60
1521856958.58,34173,9.38,71852.5,-13.43,-43.01,-43.15,0,*62
1521856959.84,34174,9.38,71856.8,-13.45,-42.51,-42.57,0,*60
1521856961.12,34175,9.38,71856.0,-13.45,-42.57,-42.57,0,*67
1521856962.43,34176,9.38,71854.5,-13.45,-42.95,-42.95,0,*64
1521856963.72,34177,9.38,71856.5,-13.45,-42.69,-42.69,0,*65
1521856964.98,34178,9.38,71858.3,-13.45,-42.51,-42.57,0,*6C
1521856966.25,34179,9.38,71856.5,-13.45,-42.75,-42.95,0,*65
1521856967.52,34180,9.38,71856.0,-13.45,-42.57,-42.75,0,*6D
1521856968.79,34181,9.38,71856.5,-13.43,-42.69,-42.95,0,*69
1521856970.01,34182,9.38,71856.5,-13.43,-43.01,-43.15,0,*6C
1521856971.26,34183,9.38,71854.8,-13.43,-43.01,-42.95,0,*64
1521856972.52,34184,9.38,71852.5,-13.43,-42.69,-42.83,0,*6B
1521856973.77,34185,9.38,71854.3,-13.43,-42.75,-42.95,0,*60
1521856975.04,34186,9.38,71854.3,-13.43,-42.83,-42.95,0,*6A
1521856976.3,34187,9.38,71856.0,-13.43,-42.57,-42.69,0,*61
1521856977.53,34188,9.38,71856.8,-13.43,-42.51,-42.57,0,*65
1521856978.79,34189,9.44,71862.3,-13.43,-42.69,-42.83,0,*66
1521856980.06,34190,9.38,71854.0,-13.41,-42.51,-42.69,0,*63
1521856981.28,34191,9.38,71856.3,-13.43,-43.15,-43.41,0,*6A
1521856982.5,34192,9.38,71858.5,-13.43,-43.15,-43.35,0,*6A
1521856983.77,34193,9.38,71856.3,-13.45,-43.01,-43.21,0,*6D
1521856985.01,34194,9.38,71856.5,-13.43,-43.01,-43.21,0,*6C
1521856986.25,34195,9.38,71858.0,-13.43,-42.95,-43.01,0,*63
1521856987.52,34196,9.38,71858.5,-13.43,-42.69,-42.83,0,*68
1521856988.76,34197,9.38,71856.8,-13.43,-42.83,-43.01,0,*66
1521856990.02,34198,9.44,71860.3,-13.43,-42.69,-42.83,0,*66
1521856991.26,34199,9.38,71858.3,-13.43,-42.75,-42.95,0,*6D
1521856992.54,34200,9.38,71858.5,-13.43,-42.95,-42.95,0,*60
1521856993.81,34201,9.38,71852.8,-13.41,-42.75,-42.95,0,*6D
1521856995.06,34202,9.38,71852.5,-13.43,-43.01,-43.21,0,*60
1521856996.28,34203,9.38,71858.5,-13.43,-43.01,-43.15,0,*66
1521856997.52,34204,9.38,71856.5,-13.43,-42.75,-42.83,0,*6D
1521856998.79,34205,9.38,71856.0,-13.41,-42.69,-42.89,0,*69
1521857000.03,34206,9.38,71852.0,-13.41,-42.75,-43.15,0,*63
1521857001.3,34207,9.38,71856.5,-13.37,-43.01,-43.29,0,*6E
1521857002.55,34208,9.38,71856.5,-13.41,-43.15,-43.49,0,*63
1521857003.79,34209,9.38,71854.0,-13.41,-43.15,-43.49,0,*62
1521857005.06,34210,9.38,71856.5,-13.41,-43.29,-43.35,0,*6E
1521857006.3,34211,9.38,71854.8,-13.41,-43.15,-43.49,0,*6B
1521857007.53,34212,9.38,71854.0,-13.43,-43.01,-43.35,0,*64
1521857008.77,34213,9.38,71856.3,-13.41,-43.15,-43.49,0,*69
1521857009.99,34214,9.38,71854.3,-13.43,-43.15,-43.35,0,*67
1521857011.25,34215,9.38,71854.3,-13.45,-43.21,-43.41,0,*64
1521857012.49,34216,9.38,71856.0,-13.43,-43.21,-43.35,0,*62
1521857013.78,34217,9.38,71854.5,-13.45,-43.21,-43.55,0,*63
1521857015.0,34218,9.38,71858.3,-13.43,-43.15,-43.41,0,*68
1521857016.25,34219,9.38,71860.0,-13.43,-43.01,-43.55,0,*69
1521857017.47,34220,9.38,71858.0,-13.43,-43.41,-43.61,0,*60
1521857018.68,34221,9.38,71856.5,-13.43,-43.41,-43.61,0,*61
1521857019.9,34222,9.38,71856.5,-13.43,-43.35,-43.35,0,*60
1521857021.15,34223,9.38,71854.3,-13.45,-43.01,-43.35,0,*60
1521857022.45,34224,9.38,71858.5,-13.45,-42.95,-42.95,0,*60
1521857023.72,34225,9.38,71858.5,-13.45,-42.95,-43.15,0,*68
1521857024.99,34226,9.38,71854.5,-13.43,-42.83,-42.95,0,*63
1521857026.24,34227,9.38,71858.8,-13.43,-42.95,-43.01,0,*69
1521857027.52,34228,9.44,71858.0,-13.45,-42.57,-42.69,0,*61
1521857028.77,34229,9.38,71858.0,-13.43,-42.95,-43.01,0,*67
1521857029.99,34230,9.38,71852.3,-13.43,-43.01,-43.35,0,*64
1521857031.21,34231,9.38,71852.3,-13.43,-43.15,-43.41,0,*63
1521857032.47,34232,9.38,71852.8,-13.43,-42.69,-42.69,0,*61
1521857033.71,34233,9.38,71856.8,-13.43,-42.83,-43.01,0,*6B
1521857034.98,34234,9.38,71856.8,-13.43,-42.95,-43.21,0,*69
1521857036.22,34235,9.38,71856.0,-13.43,-43.21,-43.35,0,*63
1521857037.46,34236,9.38,71858.8,-13.43,-43.21,-43.35,0,*60
1521857038.75,34237,9.38,71854.8,-13.41,-43.09,-43.29,0,*64
1521857040.03,34238,9.38,71856.0,-13.41,-43.09,-43.35,0,*66
1521857041.33,34239,9.38,71852.5,-13.41,-43.29,-43.67,0,*62
1521857042.57,34240,9.38,71854.8,-13.43,-43.21,-43.41,0,*62
1521857043.83,34241,9.38,71858.8,-13.45,-43.35,-43.55,0,*65
1521857045.1,34242,9.38,71854.8,-13.43,-43.21,-43.55,0,*65
1521857046.34,34243,9.38,71856.3,-13.43,-43.35,-43.55,0,*61
1521857047.58,34244,9.38,71856.5,-13.43,-43.21,-43.41,0,*66
1521857048.84,34245,9.38,71856.5,-13.43,-43.21,-43.55,0,*62
1521857050.08,34246,9.38,71856.3,-13.45,-43.35,-43.61,0,*65
1521857051.32,34247,9.38,71852.5,-13.43,-43.21,-43.41,0,*65
1521857052.56,34248,9.38,71856.3,-13.43,-43.35,-43.55,0,*6A
1521857053.8,34249,9.38,71858.0,-13.43,-43.15,-43.55,0,*69
1521857055.07,34250,9.38,71858.0,-13.45,-43.01,-43.21,0,*61
1521857056.32,34251,9.38,71854.3,-13.43,-43.01,-43.21,0,*66
1521857057.55,34252,9.38,71858.0,-13.43,-43.15,-43.21,0,*60
1521857058.77,34253,9.38,71856.5,-13.43,-43.01,-43.35,0,*61
1521857060.06,34254,9.38,71856.5,-13.45,-43.21,-43.21,0,*67
1521857061.3,34255,9.38,71858.5,-13.45,-43.15,-43.41,0,*67
1521857062.54,34256,9.38,71858.3,-13.43,-43.35,-43.55,0,*65
1521857063.78,34257,9.38,71854.3,-13.43,-43.15,-43.21,0,*65
1521857065.02,34258,9.38,71854.0,-13.43,-42.95,-43.15,0,*64
1521857066.27,34259,9.38,71854.5,-13.43,-42.89,-42.95,0,*61
1521857067.51,34260,9.38,71854.0,-13.45,-43.15,-43.41,0,*61
1521857068.75,34261,9.38,71856.3,-13.43,-43.35,-43.55,0,*61
1521857069.99,34262,9.38,71856.5,-13.43,-43.21,-43.41,0,*62
1521857071.23,34263,9.38,71856.8,-13.43,-43.21,-43.41,0,*63
1521857072.48,34264,9.38,71854.3,-13.43,-42.95,-43.15,0,*6B
1521857073.72,34265,9.38,71856.8,-13.43,-43.21,-43.41,0,*65
1521857074.96,34266,9.38,71856.0,-13.43,-43.41,-43.55,0,*65
1521857076.2,34267,9.38,71858.5,-13.43,-43.55,-43.75,0,*63
1521857077.46,34268,9.38,71858.5,-13.43,-43.21,-43.55,0,*6D
1521857078.71,34269,9.38,71860.0,-13.43,-43.01,-43.21,0,*6D
1521857079.97,34270,9.38,71858.0,-13.43,-43.21,-43.21,0,*67
1521857081.18,34271,9.38,71856.3,-13.43,-43.35,-43.41,0,*65
1521857082.43,34272,9.38,71856.8,-13.43,-43.41,-43.55,0,*60
1521857083.64,34273,9.38,71858.5,-13.43,-43.15,-43.41,0,*65
1521857084.86,34274,9.38,71856.5,-13.43,-43.15,-43.35,0,*61
1521857086.1,34275,9.38,71856.3,-13.43,-42.75,-42.95,0,*6C
1521857087.35,34276,9.38,71856.5,-13.43,-42.95,-43.15,0,*68
1521857088.65,34277,9.38,71856.3,-13.41,-42.95,-43.29,0,*64
1521857089.92,34278,9.38,71854.8,-13.41,-43.09,-43.35,0,*62
1521857091.2,34279,9.38,71856.0,-13.41,-43.09,-43.35,0,*63
1521857092.48,34280,9.38,71856.8,-13.41,-43.09,-43.35,0,*65
1521857093.75,34281,9.38,71852.0,-13.41,-42.95,-43.15,0,*62
1521857095.03,34282,9.38,71852.5,-13.41,-42.95,-43.15,0,*61
1521857096.3,34283,9.38,71852.5,-13.41,-42.75,-43.09,0,*63
1521857097.54,34284,9.38,71858.3,-13.41,-43.15,-43.49,0,*67
1521857098.78,34285,9.38,71858.5,-13.41,-43.15,-43.49,0,*66
1521857100.08,34286,9.38,71856.8,-13.41,-42.95,-43.29,0,*6A
1521857101.38,34287,9.38,71856.8,-13.41,-43.09,-43.29,0,*6F
1521857102.63,34288,9.38,71852.3,-13.37,-43.01,-43.41,0,*67
1521857103.88,34289,9.38,71854.0,-13.41,-43.15,-43.35,0,*61
1521857105.15,34290,9.38,71856.8,-13.41,-43.09,-43.49,0,*6F
1521857106.42,34291,9.38,71854.0,-13.41,-43.35,-43.67,0,*6D
1521857107.66,34292,9.38,71854.5,-13.41,-43.15,-43.49,0,*60
1521857108.95,34293,9.38,71856.0,-13.37,-43.29,-43.29,0,*69
1521857110.22,34294,9.38,71858.5,-13.41,-43.29,-43.49,0,*69
1521857111.5,34295,9.38,71858.3,-13.41,-42.75,-42.95,0,*60
1521857112.74,34296,9.38,71858.5,-13.41,-43.15,-43.49,0,*64
1521857114.03,34297,9.38,71856.3,-13.37,-43.09,-43.29,0,*6F
1521857115.28,34298,9.38,71858.5,-13.41,-43.15,-43.35,0,*61
1521857116.55,34299,9.38,71856.3,-13.41,-42.95,-43.15,0,*6B
1521857117.8,34300,9.38,71856.0,-13.41,-42.75,-42.89,0,*60
1521857119.07,34301,9.38,71858.0,-13.37,-43.09,-43.41,0,*6F
1521857120.31,34302,9.38,71856.3,-13.37,-43.49,-43.61,0,*6A
1521857121.59,34303,9.38,71856.3,-13.37,-43.09,-43.41,0,*6D
1521857122.85,34304,9.38,71854.0,-13.37,-43.21,-43.41,0,*60
1521857124.12,34305,9.38,71852.3,-13.37,-43.01,-43.29,0,*6D
1521857125.39,34306,9.38,71856.5,-13.37,-43.01,-43.21,0,*66
1521857126.66,34307,9.38,71854.8,-13.41,-43.29,-43.49,0,*62
1521857127.91,34308,9.38,71856.5,-13.37,-43.41,-43.49,0,*62
1521857129.16,34309,9.38,71854.8,-13.37,-43.01,-43.41,0,*6F
1521857130.43,34310,9.38,71856.8,-13.41,-42.95,-43.15,0,*6B
1521857131.68,34311,9.38,71858.8,-13.37,-43.01,-43.01,0,*62
1521857132.97,34312,9.38,71854.5,-13.37,-42.83,-43.09,0,*62
1521857134.24,34313,9.38,71854.5,-13.37,-43.01,-43.29,0,*6A
1521857135.5,34314,9.38,71856.0,-13.37,-43.21,-43.49,0,*69
1521857136.77,34315,9.38,71856.5,-13.37,-43.21,-43.49,0,*68
1521857138.02,34316,9.38,71858.8,-13.37,-43.01,-43.41,0,*61
1521857139.29,34317,9.38,71852.8,-13.37,-43.01,-43.21,0,*66
1521857140.53,34318,9.38,71856.0,-13.37,-42.89,-43.41,0,*6E
1521857141.8,34319,9.38,71856.8,-13.37,-43.21,-43.41,0,*6C
1521857143.06,34320,9.38,71858.0,-13.37,-43.29,-43.49,0,*66
1521857144.31,34321,9.38,71856.5,-13.37,-42.89,-43.41,0,*64
1521857145.58,34322,9.38,71852.3,-13.37,-43.41,-43.67,0,*66
1521857146.85,34323,9.38,71856.3,-13.37,-43.01,-43.29,0,*69
1521857148.07,34324,9.38,71856.8,-13.35,-43.35,-43.41,0,*65
1521857149.34,34325,9.38,71858.5,-13.37,-43.41,-43.67,0,*61
1521857150.61,34326,9.38,71860.0,-13.37,-43.09,-43.49,0,*62
1521857151.88,34327,9.38,71858.0,-13.35,-43.21,-43.55,0,*66
1521857153.09,34328,9.38,71860.8,-13.35,-43.15,-43.35,0,*68
1521857154.36,34329,9.38,71858.0,-13.37,-42.89,-43.29,0,*62
1521857155.62,34330,9.38,71854.3,-13.37,-42.89,-43.21,0,*62
1521857156.89,34331,9.38,71858.3,-13.37,-42.69,-42.89,0,*6E
1521857158.1,34332,9.38,71854.3,-13.35,-42.89,-43.01,0,*60
1521857159.33,34333,9.38,71860.0,-13.35,-43.01,-43.15,0,*65
1521857160.58,34334,9.38,71858.8,-13.35,-43.09,-43.41,0,*6B
1521857161.85,34335,9.38,71858.3,-13.35,-42.95,-43.21,0,*68
1521857163.14,34336,9.38,71858.3,-13.33,-42.95,-43.21,0,*6D
1521857164.36,34337,9.38,71862.0,-13.35,-43.15,-43.61,0,*67
1521857165.6,34338,9.38,71852.8,-13.35,-43.21,-43.41,0,*6D
1521857166.87,34339,9.38,71856.3,-13.37,-43.09,-43.41,0,*64
1521857168.14,34340,9.38,71858.3,-13.33,-42.83,-43.01,0,*69
1521857169.38,34341,9.38,71856.0,-13.35,-42.83,-43.15,0,*6B
1521857170.61,34342,9.38,71852.3,-13.35,-43.01,-43.15,0,*63
1521857171.83,34343,9.38,71858.3,-13.35,-42.63,-42.75,0,*60
1521857173.1,34344,9.38,71856.5,-13.29,-42.75,-42.95,0,*63
1521857174.37,34345,9.38,71856.3,-13.33,-42.31,-42.51,0,*61
1521857175.61,34346,9.38,71854.3,-13.29,-42.51,-42.51,0,*6F
1521857176.88,34347,9.38,71854.8,-13.29,-42.89,-43.09,0,*67
1521857178.15,34348,9.38,71856.3,-13.29,-43.09,-43.15,0,*6C
1521857179.39,34349,9.38,71856.8,-13.29,-43.15,-43.15,0,*60
1521857180.66,34350,9.38,71858.3,-13.29,-42.95,-43.15,0,*61
1521857181.96,34351,9.38,71856.8,-13.29,-43.09,-43.29,0,*6B
1521857183.21,34352,9.38,71856.3,-13.27,-42.95,-43.15,0,*6D
1521857184.48,34353,9.38,71854.0,-13.27,-43.09,-43.29,0,*67
1521857185.75,34354,9.38,71858.5,-13.27,-43.09,-43.29,0,*60
1521857187.0,34355,9.38,71856.8,-13.27,-43.09,-43.15,0,*6E
1521857188.25,34356,9.38,71858.8,-13.27,-42.75,-43.09,0,*6A
1521857189.48,34357,9.38,71856.5,-13.27,-43.15,-43.35,0,*63
1521857190.76,34358,9.38,71858.5,-13.27,-42.95,-42.95,0,*6E
1521857192.01,34359,9.38,71856.8,-13.27,-42.95,-43.15,0,*66
1521857193.28,34360,9.38,71854.0,-13.27,-43.09,-43.29,0,*67
1521857194.52,34361,9.38,71858.5,-13.25,-43.15,-43.15,0,*66
1521857195.77,34362,9.38,71858.8,-13.23,-43.01,-43.09,0,*6B
1521857197.04,34363,9.38,71852.8,-13.25,-42.89,-42.95,0,*69
1521857198.27,34364,9.38,71856.5,-13.27,-43.15,-43.35,0,*63
1521857199.53,34365,9.38,71852.3,-13.25,-43.29,-43.49,0,*64
1521857200.79,34366,9.38,71856.3,-13.27,-43.49,-43.55,0,*6E
1521857202.01,34367,9.38,71854.8,-13.27,-43.35,-43.49,0,*69
1521857203.27,34368,9.38,71856.3,-13.25,-43.15,-43.29,0,*60
1521857204.54,34369,9.38,71854.0,-13.27,-43.09,-43.29,0,*6E
1521857205.78,34370,9.38,71858.8,-13.25,-43.15,-43.49,0,*6F
1521857207.03,34371,9.38,71858.0,-13.23,-43.01,-43.21,0,*63
1521857208.27,34372,9.38,71860.3,-13.27,-43.15,-43.29,0,*69
1521857209.51,34373,9.38,71856.5,-13.25,-43.35,-43.49,0,*6E
1521857210.78,34374,9.38,71854.5,-13.25,-43.29,-43.49,0,*64
1521857212.05,34375,9.38,71854.3,-13.25,-43.49,-43.55,0,*6E
1521857213.32,34376,9.38,71856.8,-13.25,-43.29,-43.49,0,*66
1521857214.56,34377,9.38,71856.8,-13.27,-43.15,-43.29,0,*6C
1521857215.84,34378,9.38,71854.3,-13.25,-43.49,-43.55,0,*63
1521857217.11,34379,9.38,71856.3,-13.25,-43.29,-43.35,0,*62
1521857218.38,34380,9.38,71858.5,-13.25,-42.89,-42.95,0,*64
1521857219.62,34381,9.38,71856.8,-13.23,-43.01,-43.21,0,*6C
1521857220.89,34382,9.38,71858.5,-13.23,-43.21,-43.29,0,*65
1521857222.11,34383,9.38,71856.8,-13.23,-43.41,-43.49,0,*64
1521857223.33,34384,9.38,71854.5,-13.23,-43.61,-43.61,0,*6B
1521857224.58,34385,9.38,71858.8,-13.23,-43.49,-43.67,0,*66
1521857225.83,34386,9.38,71856.0,-13.23,-43.49,-43.67,0,*65
1521857227.07,34387,9.38,71858.0,-13.23,-43.29,-43.49,0,*6E
1521857228.29,34388,9.38,71858.5,-13.23,-43.49,-43.61,0,*6D
1521857229.52,34389,9.38,71856.0,-13.23,-43.41,-43.41,0,*66
1521857230.76,34390,9.38,71858.0,-13.23,-43.21,-43.41,0,*68
1521857232.03,34391,9.38,71856.8,-13.21,-43.29,-43.41,0,*63
1521857233.25,34392,9.38,71858.8,-13.23,-43.41,-43.49,0,*64
1521857234.47,34393,9.38,71856.5,-13.23,-43.41,-43.61,0,*6F
1521857235.74,34394,9.38,71862.0,-13.23,-43.09,-43.21,0,*60
1521857236.96,34395,9.38,71858.0,-13.23,-43.75,-43.87,0,*66
1521857238.18,34396,9.38,71858.0,-13.23,-43.61,-43.87,0,*60
1521857239.44,34397,9.38,71858.0,-13.23,-43.21,-43.29,0,*61
1521857240.71,34398,9.38,71858.0,-13.23,-43.09,-43.21,0,*6C
1521857241.97,34399,9.38,71858.0,-13.23,-43.21,-43.29,0,*6F
1521857243.21,34400,9.38,71856.3,-13.23,-43.21,-43.41,0,*66
1521857244.46,34401,9.38,71856.3,-13.23,-43.49,-43.67,0,*6D
1521857245.68,34402,9.38,71858.8,-13.23,-43.41,-43.61,0,*60
1521857246.95,34403,9.38,71854.3,-13.21,-43.01,-43.21,0,*63
1521857248.21,34404,9.38,71856.3,-13.23,-43.21,-43.21,0,*64
1521857249.46,34405,9.38,71858.8,-13.23,-43.01,-43.21,0,*67
1521857250.75,34406,9.38,71856.5,-13.21,-42.69,-43.09,0,*63
1521857252.02,34407,9.38,71856.8,-13.21,-42.89,-43.21,0,*66
1521857253.31,34408,9.38,71856.3,-13.21,-43.09,-43.21,0,*60
1521857254.56,34409,9.38,71858.3,-13.19,-43.01,-43.21,0,*62
1521857255.83,34410,9.38,71856.5,-13.19,-42.95,-43.21,0,*66
1521857257.05,34411,9.38,71854.5,-13.19,-43.35,-43.35,0,*69
1521857258.31,34412,9.38,71858.0,-13.19,-43.21,-43.21,0,*6A
1521857259.57,34413,9.38,71856.5,-13.21,-42.83,-43.01,0,*6B
1521857260.84,34414,9.38,71858.0,-13.21,-43.01,-43.21,0,*65
1521857262.09,34415,9.38,71860.3,-13.19,-42.75,-42.95,0,*63
1521857263.34,34416,9.38,71860.3,-13.19,-43.35,-43.55,0,*68
1521857264.58,34417,9.38,71856.5,-13.19,-43.21,-43.35,0,*6A
1521857265.8,34418,9.38,71858.0,-13.19,-43.15,-43.15,0,*60
1521857267.02,34419,9.38,71858.8,-13.19,-43.01,-43.15,0,*64
1521857268.27,34420,9.38,71860.8,-13.19,-43.01,-43.21,0,*69
1521857269.51,34421,9.38,71856.0,-13.19,-43.21,-43.41,0,*6C
1521857270.76,34422,9.38,71856.8,-13.15,-42.89,-43.09,0,*6C
1521857272.0,34423,9.38,71856.8,-13.19,-43.55,-43.61,0,*6F
1521857273.22,34424,9.38,71858.3,-13.15,-43.49,-43.49,0,*63
1521857274.44,34425,9.38,71858.3,-13.15,-43.49,-43.35,0,*69
1521857275.68,34426,9.38,71856.8,-13.19,-43.15,-43.29,0,*62
1521857276.95,34427,9.38,71860.0,-13.15,-42.69,-43.09,0,*67
1521857278.2,34428,9.38,71862.3,-13.15,-43.09,-43.15,0,*62
1521857279.45,34429,9.38,71862.5,-13.15,-43.29,-43.35,0,*63
1521857280.66,34430,9.38,71862.0,-13.15,-43.35,-43.35,0,*66
1521857281.88,34431,9.38,71856.8,-13.15,-43.35,-43.49,0,*6C
1521857283.1,34432,9.38,71860.5,-13.15,-43.35,-43.35,0,*64
1521857284.34,34433,9.38,71858.3,-13.15,-42.89,-43.09,0,*6C
1521857285.62,34434,9.38,71858.8,-13.15,-43.09,-43.09,0,*62
1521857286.84,34435,9.38,71856.3,-13.19,-43.41,-43.61,0,*6D
1521857288.09,34436,9.38,71858.8,-13.15,-43.49,-43.55,0,*6D
1521857289.31,34437,9.38,71858.5,-13.15,-43.49,-43.75,0,*6E
1521857290.55,34438,9.38,71862.3,-13.15,-43.29,-43.35,0,*63
1521857291.8,34439,9.38,71862.8,-13.15,-43.29,-43.49,0,*69
1521857293.04,34440,9.31,71852.8,-13.15,-43.55,-43.75,0,*63
1521857294.28,34441,9.38,71862.3,-13.15,-43.29,-43.49,0,*66
1521857295.53,34442,9.38,71858.3,-13.15,-43.49,-43.55,0,*6E
1521857296.77,34443,9.38,71858.5,-13.15,-43.61,-43.81,0,*6C
1521857298.0,34444,9.38,71856.3,-13.19,-43.61,-43.61,0,*69
1521857299.24,34445,9.38,71856.8,-13.15,-43.29,-43.49,0,*62
1521857300.51,34446,9.38,71856.3,-13.15,-43.09,-43.29,0,*65
1521857301.73,34447,9.38,71862.8,-13.15,-43.15,-43.35,0,*64